Retour au catalogue

TERRA SAR X

ActifScienceSSO
NORAD 31698·PAYLOAD·🇩🇪 Germany

Lancé Jun 15, 2007 depuis Baikonur Cosmodrome

Loading…

Prochains Passages (prochaines 24 heures)

TLE

FraisSource: CelesTrak SupGP

Époque: Sep 14, 2026, 00:01 UTC

1 31698C 07026A   26257.00118056  .00001394  00000+0  66525-4 0  2576
2 31698  97.4469 263.4493 0001616  94.3340   9.5398 15.19147389    19

Suivez TERRA SAR X en temps réel avec AllMySat

Download on the App Store